Home > Weather > Leer > Past weeks

Flag for Germany Past Weather in Leer, Lower Saxony, Germany — Yesterday and Last 2 Weeks

Now
70 °F

Sunny.


Feels Like: 71 °F
Forecast: 67 / 85 °F
Wind: 6 mph from Southeast

Location: Emden-Koenigspolder

Current Time: Aug 24, 2016 at 10:42:46 AM

Latest Report: Aug 24, 2016 at 10:00 AM


Visibility: 6 mi

Pressure: 30.22 "Hg

Humidity: 80%

Dew Point: 64 °F

Location of LeerLocation

Past Weather in Leer — Graph

°F

Leer Temperature Yesterday

Maximum temperature yesterday: 75 °F (at 3:00 PM)
Minimum temperature yesterday: 63 °F (at 1:00 AM)
Average temperature yesterday: 68 °F

High & Low Weather Summary for the Past Weeks

 TemperatureHumidityPressure
High75 °F (Aug 23, 3:00 PM)100% (Aug 16, 1:00 AM)30.32 "Hg (Aug 16, 1:00 AM)
Low48 °F (Aug 19, 7:00 AM)47% (Aug 17, 4:00 PM)29.77 "Hg (Aug 20, 1:00 AM)
Average61 °F83%30.07 "Hg
* Reported Aug 9 9:00 AM — Aug 24 9:00 AM, Leer, Weather by CustomWeather, © 2016

Note: Actual official high and low records may vary slightly from our data, if they occured in-between our weather recording intervals... More about our weather records

Advertising

Leer Weather History for the Previous 24 Hours

Scroll right to see more
 ConditionsComfort  
Time TempWeatherWind HumidityBarometerVisibility
9:00 AM
Wed, Aug 24
68 °FSunny.3 mph87%30.22 "Hg3 mi
7:00 AM61 °FFog.2 mph98%30.22 "Hg2 mi
6:00 AM61 °FFog.2 mph97%30.22 "Hg2 mi
4:00 AM60 °FFog.2 mph99%30.24 "Hg1 mi
3:00 AM61 °FFog.2 mph97%30.25 "Hg3 mi
1:00 AM62 °FClear.2 mph93%30.27 "Hg6 mi
12:00 AM62 °FClear.1 mph96%30.27 "Hg6 mi
10:00 PM
Tue, Aug 23
64 °FPassing clouds.2 mph93%30.28 "Hg6 mi
9:00 PM68 °FLight fog.3 mph91%30.28 "Hg6 mi
7:00 PM74 °FPassing clouds.6 mph76%30.28 "Hg2 mi
6:00 PM75 °FOvercast.1 mph71%30.29 "Hg12 mi
4:00 PM75 °FOvercast.2 mph69%30.30 "Hg8 mi
3:00 PM75 °FOvercast.1 mph65%30.30 "Hg6 mi
1:00 PM73 °FHaze.2 mph69%30.30 "Hg16 mi
12:00 PM71 °FOvercast.2 mph81%30.32 "Hg7 mi
10:00 AM67 °FLow clouds.2 mph90%30.30 "Hg6 mi
Weather by CustomWeather, © 2016

See weather overviewHow to use our weather pages